Weather History for MMMX - March, 2014

Change the Weather History Date:

Monday, March 3, 2014

  Actual Average Record
Temperature  
Mean Temperature 64 °F -  
Max Temperature 75 °F 76 °F 86 °F (2007)
Min Temperature 53 °F 46 °F 28 °F (2013)
Degree Days  
Heating Degree Days 1    
Growing Degree Days 14 (Base 50)    
Moisture  
Dew Point 42 °F    
Average Humidity 48    
Maximum Humidity 82    
Minimum Humidity 24    
Precipitation  
Precipitation 0.00 in - - ()
Sea Level Pressure  
Sea Level Pressure 30.13 in    
Wind  
Wind Speed 6 mph ()    
Max Wind Speed 23 mph    
Max Gust Speed -    
Visibility 7.7 miles    
Events Rain , Thunderstorm    
Averages and records for this station are not official NWS values.
T = Trace of Precipitation, MM = Missing Value Source: Averaged Metar Reports

Daily Weather History Graph

Daily Weather History Graph

Search for Another Location

Airport or City:

Trip Planner

Search our weather history database for the weather conditions in past years. The results will help you decide how hot, cold, wet, or windy it might be!

Date:

Astronomy

Mar. 03, 2014 Rise Set
Actual Time 6:54 AM CST 6:42 PM CST
Civil Twilight 6:32 AM CST 7:04 PM CST
Nautical Twilight 6:06 AM CST 7:30 PM CST
Astronomical Twilight 5:41 AM CST 7:55 PM CST
Moon 8:29 AM CST (3/3) 9:16 PM CST (3/3)
Length of Visible Light 12h 32m
Length of Day
11h 48m
Waxing Crescent, 8% of the Moon is Illuminated
Mar 3
Waxing Crescent
Mar 8
First Quarter
Mar 16
Full
Mar 23
Last Quarter
Mar 30
New

Hourly Weather History & Observations

Time (CST) Temp. Dew Point Humidity Pressure Visibility Wind Dir Wind Speed Gust Speed Precip Events Conditions
12:43 AM 62.6 °F 41.0 °F 45% 30.30 in 10.0 mi West 9.2 mph - N/A   Clear
1:46 AM 60.8 °F 41.0 °F 48% 30.27 in 11.0 mi Calm Calm - N/A   Clear
2:46 AM 59.0 °F 41.0 °F 51% 29.68 in 11.0 mi East 4.6 mph - N/A   Clear
3:59 AM 57.2 °F 41.0 °F 55% 30.25 in 13.0 mi NNE 2.3 mph - N/A   Clear
4:44 AM 55.4 °F 41.0 °F 58% 30.25 in 13.0 mi Calm Calm - N/A   Clear
5:42 AM 53.6 °F 37.4 °F 54% 29.75 in 13.0 mi NE 2.3 mph - N/A   Clear
6:46 AM 55.4 °F 37.4 °F 51% 30.27 in 11.0 mi NE 3.5 mph - N/A   Clear
7:24 AM 53.6 °F 37.4 °F 54% 30.28 in 8.0 mi ENE 5.8 mph - N/A   Clear
7:43 AM 55.4 °F 39.2 °F 54% 30.29 in 8.0 mi ENE 5.8 mph - N/A   Clear
8:21 AM 57.2 °F 37.4 °F 48% 30.30 in 8.0 mi ENE 8.1 mph - N/A   Clear
8:43 AM 59.0 °F 37.4 °F 45% 29.83 in 7.0 mi East 5.8 mph - N/A   Clear
9:21 AM 62.6 °F 39.2 °F 42% 30.31 in 7.0 mi SE 2.3 mph - N/A   Clear
9:23 AM 62.6 °F 39.2 °F 42% 30.31 in 7.0 mi East 3.5 mph - N/A   Clear
9:42 AM 64.4 °F 39.2 °F 40% 30.31 in 6.0 mi ENE 2.3 mph - N/A   Clear
10:45 AM 68.0 °F 39.2 °F 35% 30.30 in 6.0 mi North 4.6 mph - N/A   Clear
10:46 AM 68.0 °F 39.2 °F 35% 30.30 in 6.0 mi NNE 4.6 mph - N/A   Clear
11:43 AM 71.6 °F 39.2 °F 31% 30.27 in 6.0 mi North 5.8 mph - N/A   Scattered Clouds
11:45 AM 71.6 °F 39.2 °F 31% 29.75 in 6.0 mi North 4.6 mph - N/A   Scattered Clouds
12:42 PM 73.4 °F 37.4 °F 27% 30.24 in 7.0 mi NNE 3.5 mph - N/A   Scattered Clouds
1:42 PM 75.2 °F 37.4 °F 25% 30.20 in 7.0 mi North 12.7 mph - N/A   Mostly Cloudy
2:51 PM 75.2 °F 37.4 °F 25% 29.62 in 6.0 mi East 9.2 mph - N/A   Mostly Cloudy
3:49 PM 75.2 °F 35.6 °F 24% 30.13 in 6.0 mi Variable 3.5 mph - N/A   Overcast
4:33 PM 73.4 °F 44.6 °F 36% 30.12 in 6.0 mi ENE 17.3 mph - N/A   Overcast
4:46 PM 71.6 °F 44.6 °F 38% 30.12 in 5.0 mi ENE 23.0 mph - N/A   Overcast
5:28 PM 68.0 °F 48.2 °F 49% 30.13 in 5.0 mi NE 17.3 mph - N/A   Overcast
5:43 PM 66.2 °F 46.4 °F 49% 29.70 in 6.0 mi ENE 13.8 mph - N/A   Overcast
6:44 PM 66.2 °F 46.4 °F 49% 30.16 in 6.0 mi NNE 5.8 mph - N/A   Mostly Cloudy
7:44 PM 64.4 °F 46.4 °F 52% 30.21 in 7.0 mi NW 12.7 mph - N/A   Scattered Clouds
8:49 PM 60.8 °F 48.2 °F 63% 30.26 in 8.0 mi North 13.8 mph - N/A   Partly Cloudy
8:50 PM 60.8 °F 48.2 °F 63% 29.82 in 8.0 mi North 11.5 mph - N/A   Partly Cloudy
9:50 PM 59.0 °F 46.4 °F 63% 30.28 in 10.0 mi NW 8.1 mph - N/A   Scattered Clouds
10:36 PM 57.2 °F 48.2 °F 72% 30.30 in 5.0 mi West 8.1 mph - N/A Rain Rain
10:39 PM 55.4 °F 50.0 °F 82% 30.29 in 3.0 mi WNW 8.1 mph - N/A Rain , Thunderstorm Thunderstorms and Rain
10:49 PM 55.4 °F 48.2 °F 77% 30.28 in 6.0 mi WNW 9.2 mph - N/A   Mostly Cloudy
11:49 PM 57.2 °F 46.4 °F 67% 29.78 in 10.0 mi NW 6.9 mph - N/A   Scattered Clouds